Terminal Aerodrome Forecast
Issued by NWS State College, PA

Home | Current Version | Previous Version | Text Only | Print | Product List | Glossary On
Versions: 1 2 3 4 5 6 7 8 9 10 11 12 13 14 15 16 17 18 19 20 21 22 23 24 25 26 27 28 29 30 31 32 33 34 35 36 37 38 39 40 41 42 43 44 45 46 47 48 49 50
000
FTUS41 KCTP 302117 AAC
TAFMDT
TAF AMD
KMDT 302117Z 3021/0118 22006KT P6SM VCTS SCT028CB BKN060
      TEMPO 3022/3024 21012G25KT 4SM +TSRA OVC028CB
     FM010200 VRB03KT P6SM -SHRA VCTS BKN030CB OVC050
     FM010700 25003KT 4SM BR BKN020 OVC050=

USA.gov is the U.S. government's official web portal to all federal, state and local government web resources and services.